Time,TemperatureF,DewpointF,PressureIn,WindDirection,WindDirectionDegrees,WindSpeedMPH,WindSpeedGustMPH,Humidity,HourlyPrecipIn,Conditions,Clouds,dailyrainin,SolarRadiationWatts/m^2,SoftwareType,DateUTC
2013-09-30 00:03:00,62.4,61.2,30.01,SSW,198,0.0,0.0,96,0.00,,,0.00,0,Wunderground v.1.15,2013-09-30 04:03:00,
2013-09-30 00:04:00,62.4,61.2,30.01,SSW,198,0.0,0.0,96,0.00,,,0.00,0,Wunderground v.1.15,2013-09-30 04:04:00,
2013-09-30 00:05:00,62.3,61.1,30.01,SSW,198,0.0,0.0,96,0.00,,,0.00,0,Wunderground v.1.15,2013-09-30 04:05:00,
2013-09-30 00:06:00,62.3,61.1,30.01,SSW,198,0.0,0.0,96,0.00,,,0.00,0,Wunderground v.1.15,2013-09-30 04:06:00,
2013-09-30 00:07:00,62.3,61.1,30.01,SSW,198,0.0,0.0,96,0.00,,,0.00,0,Wunderground v.1.15,2013-09-30 04:07:00,
2013-09-30 00:12:00,62.2,61.0,30.01,SSW,198,0.0,0.0,96,0.00,,,0.00,0,Wunderground v.1.15,2013-09-30 04:12:00,
2013-09-30 00:19:00,62.1,60.9,30.01,SSW,198,0.0,0.0,96,0.00,,,0.00,0,Wunderground v.1.15,2013-09-30 04:19:00,
2013-09-30 00:24:00,62.1,60.9,30.01,SSW,198,0.0,0.0,96,0.00,,,0.00,0,Wunderground v.1.15,2013-09-30 04:24:00,
2013-09-30 00:30:00,62.0,60.8,30.00,SSW,198,0.0,0.0,96,0.00,,,0.00,0,Wunderground v.1.15,2013-09-30 04:30:00,
2013-09-30 00:36:00,62.0,60.8,30.01,SSW,198,0.0,0.0,96,0.00,,,0.00,0,Wunderground v.1.15,2013-09-30 04:36:00,
2013-09-30 00:41:00,61.9,61.0,30.01,SSW,198,0.0,0.0,97,0.00,,,0.00,0,Wunderground v.1.15,2013-09-30 04:41:00,
2013-09-30 00:47:00,61.9,61.0,30.01,SSW,198,0.0,0.0,97,0.00,,,0.00,0,Wunderground v.1.15,2013-09-30 04:47:00,
2013-09-30 00:52:00,61.9,61.0,30.01,SSW,198,0.0,0.0,97,0.00,,,0.00,0,Wunderground v.1.15,2013-09-30 04:52:00,
2013-09-30 00:57:00,61.8,60.9,30.01,SSW,198,0.0,0.0,97,0.00,,,0.00,0,Wunderground v.1.15,2013-09-30 04:57:00,
2013-09-30 01:03:00,61.8,60.9,30.01,SSW,197,0.0,0.0,97,0.00,,,0.00,0,Wunderground v.1.15,2013-09-30 05:03:00,
2013-09-30 01:09:00,61.8,60.9,30.01,SSW,198,0.0,0.0,97,0.00,,,0.00,0,Wunderground v.1.15,2013-09-30 05:09:00,
2013-09-30 01:14:00,61.7,60.8,30.01,SSW,198,0.0,0.0,97,0.00,,,0.00,0,Wunderground v.1.15,2013-09-30 05:14:00,
2013-09-30 01:20:00,61.7,60.8,30.01,SSW,198,0.0,0.0,97,0.00,,,0.00,0,Wunderground v.1.15,2013-09-30 05:20:00,
2013-09-30 01:25:00,61.6,60.7,30.01,SSW,197,0.0,0.0,97,0.00,,,0.00,0,Wunderground v.1.15,2013-09-30 05:25:00,
2013-09-30 01:31:00,61.6,60.4,30.01,SSW,198,0.0,0.0,96,0.00,,,0.00,0,Wunderground v.1.15,2013-09-30 05:31:00,
2013-09-30 01:36:00,61.5,60.6,30.01,SSW,198,0.0,0.0,97,0.00,,,0.00,0,Wunderground v.1.15,2013-09-30 05:36:00,
2013-09-30 01:41:00,61.5,60.6,30.01,SSW,198,0.0,0.0,97,0.00,,,0.00,0,Wunderground v.1.15,2013-09-30 05:41:00,
2013-09-30 01:48:00,61.4,60.5,30.01,SSW,198,0.0,0.0,97,0.00,,,0.00,0,Wunderground v.1.15,2013-09-30 05:48:00,
2013-09-30 01:53:00,61.4,60.5,30.01,SSW,198,0.0,0.0,97,0.00,,,0.00,0,Wunderground v.1.15,2013-09-30 05:53:00,
2013-09-30 01:59:00,61.2,60.3,30.01,SSW,198,0.0,0.0,97,0.00,,,0.00,0,Wunderground v.1.15,2013-09-30 05:59:00,
2013-09-30 02:04:00,61.1,60.2,30.01,SSW,198,0.0,0.0,97,0.00,,,0.00,0,Wunderground v.1.15,2013-09-30 06:04:00,
2013-09-30 02:09:00,61.1,60.2,30.01,SSW,198,0.0,0.0,97,0.00,,,0.00,0,Wunderground v.1.15,2013-09-30 06:09:00,
2013-09-30 02:14:00,61.0,60.1,30.02,SSW,197,0.0,0.0,97,0.00,,,0.00,0,Wunderground v.1.15,2013-09-30 06:14:00,
2013-09-30 02:20:00,61.0,60.1,30.01,SSW,197,0.0,0.0,97,0.00,,,0.00,0,Wunderground v.1.15,2013-09-30 06:20:00,
2013-09-30 02:25:00,61.0,60.1,30.01,SSW,198,0.0,0.0,97,0.00,,,0.00,0,Wunderground v.1.15,2013-09-30 06:25:00,
2013-09-30 02:30:00,61.0,60.1,30.01,SSW,198,0.0,0.0,97,0.00,,,0.00,0,Wunderground v.1.15,2013-09-30 06:30:00,
2013-09-30 02:35:00,60.9,60.0,30.01,SSW,198,0.0,0.0,97,0.00,,,0.00,0,Wunderground v.1.15,2013-09-30 06:35:00,
2013-09-30 02:40:00,60.9,60.0,30.01,SSW,198,0.0,0.0,97,0.00,,,0.00,0,Wunderground v.1.15,2013-09-30 06:40:00,
2013-09-30 02:45:00,61.0,60.1,30.01,SSW,198,0.0,0.0,97,0.00,,,0.00,0,Wunderground v.1.15,2013-09-30 06:45:00,
2013-09-30 02:50:00,61.0,60.1,30.00,SSW,198,0.0,0.0,97,0.00,,,0.00,0,Wunderground v.1.15,2013-09-30 06:50:00,
2013-09-30 02:55:00,61.1,60.5,30.00,SSW,198,0.0,0.0,98,0.00,,,0.00,0,Wunderground v.1.15,2013-09-30 06:55:00,
2013-09-30 03:00:00,61.1,60.5,30.00,SSW,198,0.0,0.0,98,0.00,,,0.00,0,Wunderground v.1.15,2013-09-30 07:00:00,
2013-09-30 03:06:00,61.0,60.4,30.00,SSW,197,0.0,0.0,98,0.00,,,0.00,0,Wunderground v.1.15,2013-09-30 07:06:00,
2013-09-30 03:12:00,61.0,60.4,30.00,SSW,198,0.0,0.0,98,0.00,,,0.00,0,Wunderground v.1.15,2013-09-30 07:12:00,
2013-09-30 03:17:00,60.9,60.3,30.00,SSW,198,0.0,0.0,98,0.00,,,0.00,0,Wunderground v.1.15,2013-09-30 07:17:00,
2013-09-30 03:22:00,60.9,60.3,30.00,SSW,197,0.0,0.0,98,0.00,,,0.00,0,Wunderground v.1.15,2013-09-30 07:22:00,
2013-09-30 03:27:00,60.9,60.3,30.00,SSW,198,0.0,0.0,98,0.00,,,0.00,0,Wunderground v.1.15,2013-09-30 07:27:00,
2013-09-30 03:32:00,60.8,60.2,30.00,SSW,198,0.0,0.0,98,0.00,,,0.00,0,Wunderground v.1.15,2013-09-30 07:32:00,
2013-09-30 03:37:00,60.8,60.2,30.00,SSW,198,0.0,0.0,98,0.00,,,0.00,0,Wunderground v.1.15,2013-09-30 07:37:00,
2013-09-30 03:42:00,60.7,59.8,30.00,SSW,198,0.0,0.0,97,0.00,,,0.00,0,Wunderground v.1.15,2013-09-30 07:42:00,
2013-09-30 03:47:00,60.6,59.7,30.00,SSW,198,0.0,0.0,97,0.00,,,0.00,0,Wunderground v.1.15,2013-09-30 07:47:00,
2013-09-30 03:52:00,60.6,59.7,30.00,SSW,197,0.0,0.0,97,0.00,,,0.00,0,Wunderground v.1.15,2013-09-30 07:52:00,
2013-09-30 03:57:00,60.7,60.1,30.00,SSW,197,0.0,0.0,98,0.00,,,0.00,0,Wunderground v.1.15,2013-09-30 07:57:00,
2013-09-30 04:02:00,60.7,59.8,30.00,SSW,197,0.0,0.0,97,0.00,,,0.00,0,Wunderground v.1.15,2013-09-30 08:02:00,
2013-09-30 04:07:00,60.8,60.2,30.00,SSW,198,0.0,0.0,98,0.00,,,0.00,0,Wunderground v.1.15,2013-09-30 08:07:00,
2013-09-30 04:12:00,60.8,60.2,30.00,SSW,198,0.0,0.0,98,0.00,,,0.00,0,Wunderground v.1.15,2013-09-30 08:12:00,
2013-09-30 04:18:00,60.8,60.2,30.00,SSW,198,0.0,0.0,98,0.00,,,0.00,0,Wunderground v.1.15,2013-09-30 08:18:00,
2013-09-30 04:23:00,60.9,60.3,30.00,SSW,198,0.0,0.0,98,0.00,,,0.00,0,Wunderground v.1.15,2013-09-30 08:23:00,
2013-09-30 04:28:00,60.9,60.3,30.00,SSW,197,0.0,0.0,98,0.00,,,0.00,0,Wunderground v.1.15,2013-09-30 08:28:00,
2013-09-30 04:34:00,60.9,60.3,30.00,SSW,198,0.0,0.0,98,0.00,,,0.00,0,Wunderground v.1.15,2013-09-30 08:34:00,
2013-09-30 04:39:00,60.9,60.3,30.00,SSW,198,0.0,0.0,98,0.00,,,0.00,0,Wunderground v.1.15,2013-09-30 08:39:00,
2013-09-30 04:44:00,61.0,60.4,30.00,SSW,197,0.0,0.0,98,0.00,,,0.00,0,Wunderground v.1.15,2013-09-30 08:44:00,
2013-09-30 04:50:00,61.0,60.4,30.00,SSW,198,0.0,0.0,98,0.00,,,0.00,0,Wunderground v.1.15,2013-09-30 08:50:00,
2013-09-30 04:55:00,61.2,60.6,30.00,SSW,198,0.0,0.0,98,0.00,,,0.00,0,Wunderground v.1.15,2013-09-30 08:55:00,
2013-09-30 05:00:00,61.1,60.2,30.00,SSW,197,0.0,0.0,97,0.00,,,0.00,0,Wunderground v.1.15,2013-09-30 09:00:00,
2013-09-30 05:05:00,61.1,60.5,30.00,SSW,197,0.0,0.0,98,0.00,,,0.00,0,Wunderground v.1.15,2013-09-30 09:05:00,
2013-09-30 05:10:00,61.1,60.2,30.01,SSW,198,0.0,0.0,97,0.00,,,0.00,0,Wunderground v.1.15,2013-09-30 09:10:00,
2013-09-30 05:15:00,61.1,60.2,30.00,SSW,198,0.0,0.0,97,0.00,,,0.00,0,Wunderground v.1.15,2013-09-30 09:15:00,
2013-09-30 05:20:00,61.1,60.2,30.00,SSW,198,0.0,0.0,97,0.00,,,0.00,0,Wunderground v.1.15,2013-09-30 09:20:00,
2013-09-30 05:25:00,61.1,60.2,30.00,SSW,198,0.0,0.0,97,0.00,,,0.00,0,Wunderground v.1.15,2013-09-30 09:25:00,
2013-09-30 05:30:00,61.0,59.9,30.00,SSW,198,0.0,0.0,96,0.00,,,0.00,0,Wunderground v.1.15,2013-09-30 09:30:00,
2013-09-30 05:35:00,61.0,59.9,30.00,SSW,198,0.0,0.0,96,0.00,,,0.00,0,Wunderground v.1.15,2013-09-30 09:35:00,
2013-09-30 05:40:00,61.1,60.0,30.00,SSW,198,0.0,0.0,96,0.00,,,0.00,0,Wunderground v.1.15,2013-09-30 09:40:00,
2013-09-30 05:45:00,61.1,60.0,30.00,SSW,198,0.0,0.0,96,0.00,,,0.00,0,Wunderground v.1.15,2013-09-30 09:45:00,
2013-09-30 05:50:00,61.0,59.9,30.00,SSW,198,0.0,0.0,96,0.00,,,0.00,0,Wunderground v.1.15,2013-09-30 09:50:00,
2013-09-30 05:55:00,60.9,59.8,30.00,SSW,198,0.0,0.0,96,0.00,,,0.00,0,Wunderground v.1.15,2013-09-30 09:55:00,
2013-09-30 06:00:00,60.9,59.8,30.01,SSW,198,0.0,0.0,96,0.00,,,0.00,0,Wunderground v.1.15,2013-09-30 10:00:00,
2013-09-30 06:05:00,60.9,60.0,30.01,SSW,198,0.0,0.0,97,0.00,,,0.00,0,Wunderground v.1.15,2013-09-30 10:05:00,
2013-09-30 06:11:00,61.0,60.1,30.01,SSW,197,0.0,0.0,97,0.00,,,0.00,0,Wunderground v.1.15,2013-09-30 10:11:00,
2013-09-30 06:16:00,60.9,59.8,30.01,SSW,197,0.0,0.0,96,0.00,,,0.00,0,Wunderground v.1.15,2013-09-30 10:16:00,
2013-09-30 06:21:00,60.9,60.0,30.01,SSW,198,0.0,0.0,97,0.00,,,0.00,0,Wunderground v.1.15,2013-09-30 10:21:00,
2013-09-30 06:26:00,60.8,59.7,30.02,SSW,197,0.0,0.0,96,0.00,,,0.00,0,Wunderground v.1.15,2013-09-30 10:26:00,
2013-09-30 06:31:00,60.8,59.7,30.02,SSW,197,0.0,0.0,96,0.00,,,0.00,0,Wunderground v.1.15,2013-09-30 10:31:00,
2013-09-30 06:36:00,60.7,59.6,30.02,SSW,198,0.0,0.0,96,0.00,,,0.00,0,Wunderground v.1.15,2013-09-30 10:36:00,
2013-09-30 06:41:00,60.8,59.7,30.02,SSW,198,0.0,0.0,96,0.00,,,0.00,0,Wunderground v.1.15,2013-09-30 10:41:00,
2013-09-30 06:46:00,60.7,59.8,30.02,SSW,197,0.0,0.0,97,0.00,,,0.00,0,Wunderground v.1.15,2013-09-30 10:46:00,
2013-09-30 06:52:00,60.7,59.6,30.02,SSW,198,0.0,0.0,96,0.00,,,0.00,0,Wunderground v.1.15,2013-09-30 10:52:00,
2013-09-30 06:57:00,60.6,59.5,30.02,SSW,197,0.0,0.0,96,0.00,,,0.00,0,Wunderground v.1.15,2013-09-30 10:57:00,
2013-09-30 07:02:00,60.5,59.4,30.03,SSW,197,0.0,0.0,96,0.00,,,0.00,0,Wunderground v.1.15,2013-09-30 11:02:00,
2013-09-30 07:07:00,60.3,59.2,30.02,SSW,197,0.0,0.0,96,0.00,,,0.00,0,Wunderground v.1.15,2013-09-30 11:07:00,
2013-09-30 07:12:00,60.2,59.1,30.02,SSW,197,0.0,0.0,96,0.00,,,0.00,0,Wunderground v.1.15,2013-09-30 11:12:00,
2013-09-30 07:17:00,60.1,59.2,30.02,SSW,197,0.0,0.0,97,0.00,,,0.00,0,Wunderground v.1.15,2013-09-30 11:17:00,
2013-09-30 07:22:00,60.0,59.1,30.02,SSW,198,0.0,0.0,97,0.00,,,0.00,0,Wunderground v.1.15,2013-09-30 11:22:00,
2013-09-30 07:27:00,60.0,59.4,30.03,SSW,198,0.0,0.0,98,0.00,,,0.00,0,Wunderground v.1.15,2013-09-30 11:27:00,
2013-09-30 07:33:00,60.0,59.4,30.02,SSW,197,0.0,0.0,98,0.00,,,0.00,0,Wunderground v.1.15,2013-09-30 11:33:00,
2013-09-30 07:38:00,60.0,59.1,30.03,SSW,198,0.0,0.0,97,0.00,,,0.00,0,Wunderground v.1.15,2013-09-30 11:38:00,
2013-09-30 07:43:00,60.0,59.1,30.03,SSW,198,0.0,0.0,97,0.00,,,0.00,0,Wunderground v.1.15,2013-09-30 11:43:00,
2013-09-30 07:48:00,60.1,59.2,30.03,SSW,197,0.0,0.0,97,0.00,,,0.00,0,Wunderground v.1.15,2013-09-30 11:48:00,
2013-09-30 07:53:00,60.2,59.3,30.03,SSW,197,0.0,0.0,97,0.00,,,0.00,0,Wunderground v.1.15,2013-09-30 11:53:00,
2013-09-30 07:58:00,60.3,59.4,30.03,SSW,198,0.0,0.0,97,0.00,,,0.00,0,Wunderground v.1.15,2013-09-30 11:58:00,
2013-09-30 08:03:00,60.4,59.5,30.03,SSW,198,0.0,0.0,97,0.00,,,0.00,0,Wunderground v.1.15,2013-09-30 12:03:00,
2013-09-30 08:08:00,60.5,59.6,30.03,SSW,197,0.0,0.0,97,0.00,,,0.00,0,Wunderground v.1.15,2013-09-30 12:08:00,
2013-09-30 08:13:00,60.7,59.8,30.04,SSW,197,0.0,0.0,97,0.00,,,0.00,0,Wunderground v.1.15,2013-09-30 12:13:00,
2013-09-30 08:18:00,60.8,59.9,30.03,SSW,197,0.0,0.0,97,0.00,,,0.00,0,Wunderground v.1.15,2013-09-30 12:18:00,
2013-09-30 08:23:00,60.9,60.0,30.03,SSW,198,0.0,0.0,97,0.00,,,0.00,0,Wunderground v.1.15,2013-09-30 12:23:00,
2013-09-30 08:28:00,61.1,60.2,30.03,SSW,198,0.0,0.0,97,0.00,,,0.00,0,Wunderground v.1.15,2013-09-30 12:28:00,
2013-09-30 08:33:00,61.2,60.3,30.03,SSW,198,0.0,0.0,97,0.00,,,0.00,0,Wunderground v.1.15,2013-09-30 12:33:00,
2013-09-30 08:38:00,61.5,60.3,30.03,SSW,198,0.0,0.0,96,0.00,,,0.00,0,Wunderground v.1.15,2013-09-30 12:38:00,
2013-09-30 08:43:00,61.7,60.5,30.04,SSW,198,0.0,0.0,96,0.00,,,0.00,0,Wunderground v.1.15,2013-09-30 12:43:00,
2013-09-30 08:49:00,62.0,60.8,30.04,SSW,197,0.0,0.0,96,0.00,,,0.00,0,Wunderground v.1.15,2013-09-30 12:49:00,
2013-09-30 08:54:00,62.4,61.2,30.03,SE,133,0.0,0.0,96,0.00,,,0.00,0,Wunderground v.1.15,2013-09-30 12:54:00,
2013-09-30 08:59:00,62.6,61.4,30.03,South,169,0.0,0.0,96,0.00,,,0.00,0,Wunderground v.1.15,2013-09-30 12:59:00,
2013-09-30 09:04:00,62.8,61.6,30.04,SSE,162,0.0,0.0,96,0.00,,,0.00,0,Wunderground v.1.15,2013-09-30 13:04:00,
2013-09-30 09:09:00,63.1,61.9,30.03,WSW,249,0.0,0.0,96,0.00,,,0.00,0,Wunderground v.1.15,2013-09-30 13:09:00,
2013-09-30 09:14:00,63.2,61.4,30.03,West,263,0.0,0.0,94,0.00,,,0.00,0,Wunderground v.1.15,2013-09-30 13:14:00,
2013-09-30 09:19:00,63.3,61.5,30.04,West,263,0.0,0.0,94,0.00,,,0.00,0,Wunderground v.1.15,2013-09-30 13:19:00,
2013-09-30 09:24:00,63.8,62.3,30.04,West,264,0.0,0.0,95,0.00,,,0.00,0,Wunderground v.1.15,2013-09-30 13:24:00,
2013-09-30 09:29:00,63.9,61.8,30.03,West,264,0.0,0.0,93,0.00,,,0.00,0,Wunderground v.1.15,2013-09-30 13:29:00,
2013-09-30 09:34:00,64.2,62.4,30.04,West,264,0.0,0.0,94,0.00,,,0.00,0,Wunderground v.1.15,2013-09-30 13:34:00,
2013-09-30 09:39:00,64.4,62.3,30.04,West,264,0.0,0.0,93,0.00,,,0.00,0,Wunderground v.1.15,2013-09-30 13:39:00,
2013-09-30 09:44:00,64.5,62.4,30.04,West,263,0.0,0.0,93,0.00,,,0.00,0,Wunderground v.1.15,2013-09-30 13:44:00,
2013-09-30 09:49:00,64.4,62.6,30.04,West,264,0.0,0.0,94,0.00,,,0.00,0,Wunderground v.1.15,2013-09-30 13:49:00,
2013-09-30 09:54:00,64.3,62.2,30.04,West,264,0.0,0.0,93,0.00,,,0.00,0,Wunderground v.1.15,2013-09-30 13:54:00,
2013-09-30 09:59:00,64.4,62.6,30.04,West,264,0.0,0.0,94,0.00,,,0.00,0,Wunderground v.1.15,2013-09-30 13:59:00,
2013-09-30 10:04:00,64.6,62.8,30.04,West,264,0.0,0.0,94,0.00,,,0.00,0,Wunderground v.1.15,2013-09-30 14:04:00,
2013-09-30 10:09:00,64.8,62.7,30.04,West,264,0.0,0.0,93,0.00,,,0.00,0,Wunderground v.1.15,2013-09-30 14:09:00,
2013-09-30 10:14:00,65.1,63.0,30.04,West,264,0.0,0.0,93,0.00,,,0.00,0,Wunderground v.1.15,2013-09-30 14:14:00,
2013-09-30 10:19:00,65.6,63.2,30.05,West,264,0.0,0.0,92,0.00,,,0.00,0,Wunderground v.1.15,2013-09-30 14:19:00,
2013-09-30 10:24:00,65.9,63.2,30.04,SW,234,0.0,0.0,91,0.00,,,0.00,0,Wunderground v.1.15,2013-09-30 14:24:00,
2013-09-30 10:29:00,66.2,63.5,30.04,SW,235,0.0,0.0,91,0.00,,,0.00,0,Wunderground v.1.15,2013-09-30 14:29:00,
2013-09-30 10:34:00,66.8,63.8,30.04,SW,235,0.0,0.0,90,0.00,,,0.00,0,Wunderground v.1.15,2013-09-30 14:34:00,
2013-09-30 10:39:00,67.4,63.7,30.04,SW,234,0.0,0.0,88,0.00,,,0.00,0,Wunderground v.1.15,2013-09-30 14:39:00,
2013-09-30 10:44:00,67.3,63.3,30.04,SW,234,0.0,0.0,87,0.00,,,0.00,0,Wunderground v.1.15,2013-09-30 14:44:00,
2013-09-30 10:49:00,67.3,63.6,30.04,SW,234,0.0,0.0,88,0.00,,,0.00,0,Wunderground v.1.15,2013-09-30 14:49:00,
2013-09-30 10:54:00,67.8,64.1,30.04,SW,233,0.0,0.0,88,0.00,,,0.00,0,Wunderground v.1.15,2013-09-30 14:54:00,
2013-09-30 10:59:00,68.2,64.2,30.03,SW,233,0.0,0.0,87,0.00,,,0.00,0,Wunderground v.1.15,2013-09-30 14:59:00,
2013-09-30 11:04:00,68.6,64.6,30.03,SW,233,0.0,0.0,87,0.00,,,0.00,0,Wunderground v.1.15,2013-09-30 15:04:00,
2013-09-30 11:09:00,69.0,64.3,30.03,SW,234,0.0,0.0,85,0.00,,,0.00,0,Wunderground v.1.15,2013-09-30 15:09:00,
2013-09-30 11:14:00,69.1,64.1,30.03,SW,233,0.0,0.0,84,0.00,,,0.00,0,Wunderground v.1.15,2013-09-30 15:14:00,
2013-09-30 11:19:00,69.1,64.4,30.03,SW,233,0.0,0.0,85,0.00,,,0.00,0,Wunderground v.1.15,2013-09-30 15:19:00,
2013-09-30 11:24:00,69.2,64.5,30.03,SW,227,0.0,0.0,85,0.00,,,0.00,0,Wunderground v.1.15,2013-09-30 15:24:00,
2013-09-30 11:29:00,69.3,64.6,30.03,SW,227,0.0,0.0,85,0.00,,,0.00,0,Wunderground v.1.15,2013-09-30 15:29:00,
2013-09-30 11:35:00,69.5,64.8,30.03,SW,227,0.0,0.0,85,0.00,,,0.00,0,Wunderground v.1.15,2013-09-30 15:35:00,
2013-09-30 11:40:00,69.7,65.0,30.03,SW,223,0.0,0.0,85,0.00,,,0.00,0,Wunderground v.1.15,2013-09-30 15:40:00,
2013-09-30 11:45:00,70.0,65.3,30.03,SW,222,0.0,0.0,85,0.00,,,0.00,0,Wunderground v.1.15,2013-09-30 15:45:00,
2013-09-30 11:50:00,70.3,64.9,30.02,SW,222,0.0,0.0,83,0.00,,,0.00,0,Wunderground v.1.15,2013-09-30 15:50:00,
2013-09-30 11:55:00,70.6,65.2,30.02,SW,220,0.0,0.0,83,0.00,,,0.00,0,Wunderground v.1.15,2013-09-30 15:55:00,
2013-09-30 12:00:00,71.0,65.2,30.02,South,184,0.0,0.0,82,0.00,,,0.00,0,Wunderground v.1.15,2013-09-30 16:00:00,
2013-09-30 12:05:00,71.2,65.1,30.02,South,185,0.0,0.0,81,0.00,,,0.00,0,Wunderground v.1.15,2013-09-30 16:05:00,
2013-09-30 12:11:00,71.4,65.3,30.02,South,175,0.0,0.0,81,0.00,,,0.00,0,Wunderground v.1.15,2013-09-30 16:11:00,
2013-09-30 12:16:00,71.6,65.1,30.02,SSW,193,0.0,0.0,80,0.00,,,0.00,0,Wunderground v.1.15,2013-09-30 16:16:00,
2013-09-30 12:21:00,71.7,64.8,30.02,SSW,193,0.0,0.0,79,0.00,,,0.00,0,Wunderground v.1.15,2013-09-30 16:21:00,
2013-09-30 12:26:00,71.9,65.0,30.01,SSW,193,0.0,0.0,79,0.00,,,0.00,0,Wunderground v.1.15,2013-09-30 16:26:00,
2013-09-30 12:31:00,72.1,64.9,30.02,SSW,192,0.0,0.0,78,0.00,,,0.00,0,Wunderground v.1.15,2013-09-30 16:31:00,
2013-09-30 12:36:00,72.3,64.7,30.01,SSW,193,0.0,0.0,77,0.00,,,0.00,0,Wunderground v.1.15,2013-09-30 16:36:00,
2013-09-30 12:42:00,72.3,65.1,30.01,SSW,192,0.0,0.0,78,0.00,,,0.00,0,Wunderground v.1.15,2013-09-30 16:42:00,
2013-09-30 12:47:00,72.4,64.4,30.01,SSW,193,0.0,0.0,76,0.00,,,0.00,0,Wunderground v.1.15,2013-09-30 16:47:00,
2013-09-30 12:52:00,72.3,64.7,30.01,SSW,193,0.0,0.0,77,0.00,,,0.00,0,Wunderground v.1.15,2013-09-30 16:52:00,
2013-09-30 12:57:00,72.3,64.3,30.01,SW,226,0.0,0.0,76,0.00,,,0.00,0,Wunderground v.1.15,2013-09-30 16:57:00,
2013-09-30 13:02:00,72.4,64.8,30.01,SW,226,0.0,0.0,77,0.00,,,0.00,0,Wunderground v.1.15,2013-09-30 17:02:00,
2013-09-30 13:07:00,72.4,64.8,30.01,SW,223,0.0,0.0,77,0.00,,,0.00,0,Wunderground v.1.15,2013-09-30 17:07:00,
2013-09-30 13:12:00,72.6,64.6,30.01,SW,222,0.0,0.0,76,0.00,,,0.00,0,Wunderground v.1.15,2013-09-30 17:12:00,
2013-09-30 13:17:00,72.7,64.7,30.01,SW,221,0.0,0.0,76,0.00,,,0.00,0,Wunderground v.1.15,2013-09-30 17:17:00,
2013-09-30 13:22:00,72.9,64.5,30.01,SW,221,0.0,0.0,75,0.00,,,0.00,0,Wunderground v.1.15,2013-09-30 17:22:00,
2013-09-30 13:27:00,73.2,64.0,30.01,SW,222,0.0,0.0,73,0.00,,,0.00,0,Wunderground v.1.15,2013-09-30 17:27:00,
2013-09-30 13:33:00,73.4,64.6,30.01,SW,221,0.0,0.0,74,0.00,,,0.00,0,Wunderground v.1.15,2013-09-30 17:33:00,
2013-09-30 13:38:00,73.2,63.6,30.01,WNW,297,0.0,0.0,72,0.00,,,0.00,0,Wunderground v.1.15,2013-09-30 17:38:00,
2013-09-30 13:43:00,72.8,63.2,30.00,NNE,27,0.0,0.0,72,0.00,,,0.00,0,Wunderground v.1.15,2013-09-30 17:43:00,
2013-09-30 13:48:00,72.5,63.4,30.00,NNE,25,0.0,0.0,73,0.00,,,0.00,0,Wunderground v.1.15,2013-09-30 17:48:00,
2013-09-30 13:53:00,72.7,63.5,30.00,NNE,25,0.0,0.0,73,0.00,,,0.00,0,Wunderground v.1.15,2013-09-30 17:53:00,
2013-09-30 13:58:00,73.1,63.5,30.00,NNE,24,0.0,0.0,72,0.00,,,0.00,0,Wunderground v.1.15,2013-09-30 17:58:00,
2013-09-30 14:04:00,73.4,63.8,29.99,WNW,290,0.0,0.0,72,0.00,,,0.00,0,Wunderground v.1.15,2013-09-30 18:04:00,
2013-09-30 14:09:00,73.2,63.2,29.99,NW,307,0.0,0.0,71,0.00,,,0.00,0,Wunderground v.1.15,2013-09-30 18:09:00,
2013-09-30 14:14:00,73.3,62.9,29.99,NW,308,0.0,0.0,70,0.00,,,0.00,0,Wunderground v.1.15,2013-09-30 18:14:00,
2013-09-30 14:19:00,73.3,63.7,29.99,NW,307,0.0,0.0,72,0.00,,,0.00,0,Wunderground v.1.15,2013-09-30 18:19:00,
2013-09-30 14:24:00,73.5,63.5,29.99,NW,305,0.0,0.0,71,0.00,,,0.00,0,Wunderground v.1.15,2013-09-30 18:24:00,
2013-09-30 14:29:00,73.7,63.7,29.98,WNW,303,0.0,0.0,71,0.00,,,0.00,0,Wunderground v.1.15,2013-09-30 18:29:00,
2013-09-30 14:34:00,73.7,63.3,29.98,NW,305,0.0,0.0,70,0.00,,,0.00,0,Wunderground v.1.15,2013-09-30 18:34:00,
2013-09-30 14:39:00,74.0,63.6,29.98,WNW,301,0.0,0.0,70,0.00,,,0.00,0,Wunderground v.1.15,2013-09-30 18:39:00,
2013-09-30 14:44:00,74.4,64.4,29.98,WNW,301,0.0,0.0,71,0.00,,,0.00,0,Wunderground v.1.15,2013-09-30 18:44:00,
2013-09-30 14:49:00,74.7,64.3,29.98,SE,133,0.0,0.0,70,0.00,,,0.00,0,Wunderground v.1.15,2013-09-30 18:49:00,
2013-09-30 14:54:00,74.9,64.5,29.98,SE,133,0.0,0.0,70,0.00,,,0.00,0,Wunderground v.1.15,2013-09-30 18:54:00,
2013-09-30 14:59:00,75.2,63.9,29.98,SE,130,0.0,0.0,68,0.00,,,0.00,0,Wunderground v.1.15,2013-09-30 18:59:00,
2013-09-30 15:04:00,75.6,64.3,29.98,SE,130,0.0,0.0,68,0.00,,,0.00,0,Wunderground v.1.15,2013-09-30 19:04:00,
2013-09-30 15:09:00,75.8,64.1,29.97,SE,127,0.0,0.0,67,0.00,,,0.00,0,Wunderground v.1.15,2013-09-30 19:09:00,
2013-09-30 15:14:00,76.0,63.8,29.97,SE,127,0.0,0.0,66,0.00,,,0.00,0,Wunderground v.1.15,2013-09-30 19:14:00,
2013-09-30 15:19:00,76.2,63.6,29.97,SE,128,0.0,0.0,65,0.00,,,0.00,0,Wunderground v.1.15,2013-09-30 19:19:00,
2013-09-30 15:24:00,76.5,63.4,29.97,SE,126,0.0,0.0,64,0.00,,,0.00,0,Wunderground v.1.15,2013-09-30 19:24:00,
2013-09-30 15:29:00,77.0,64.3,29.97,SE,126,0.0,0.0,65,0.00,,,0.00,0,Wunderground v.1.15,2013-09-30 19:29:00,
2013-09-30 15:35:00,77.2,64.5,29.97,SE,128,0.0,0.0,65,0.00,,,0.00,0,Wunderground v.1.15,2013-09-30 19:35:00,
2013-09-30 15:40:00,77.3,64.2,29.97,SE,135,0.0,0.0,64,0.00,,,0.00,0,Wunderground v.1.15,2013-09-30 19:40:00,
2013-09-30 15:45:00,77.2,64.5,29.96,SE,137,0.0,0.0,65,0.00,,,0.00,0,Wunderground v.1.15,2013-09-30 19:45:00,
2013-09-30 15:50:00,77.0,64.3,29.96,SE,138,0.0,0.0,65,0.00,,,0.00,0,Wunderground v.1.15,2013-09-30 19:50:00,
2013-09-30 15:55:00,76.8,64.1,29.96,SE,138,0.0,0.0,65,0.00,,,0.00,0,Wunderground v.1.15,2013-09-30 19:55:00,
2013-09-30 16:00:00,76.7,63.6,29.96,SE,138,0.0,0.0,64,0.00,,,0.00,0,Wunderground v.1.15,2013-09-30 20:00:00,
2013-09-30 16:06:00,76.5,63.4,29.96,SE,138,0.0,0.0,64,0.00,,,0.00,0,Wunderground v.1.15,2013-09-30 20:06:00,
2013-09-30 16:11:00,76.4,64.2,29.96,SE,138,0.0,0.0,66,0.00,,,0.00,0,Wunderground v.1.15,2013-09-30 20:11:00,
2013-09-30 16:16:00,76.1,63.9,29.96,SE,138,0.0,0.0,66,0.00,,,0.00,0,Wunderground v.1.15,2013-09-30 20:16:00,
2013-09-30 16:21:00,75.9,64.2,29.96,SE,136,0.0,0.0,67,0.00,,,0.00,0,Wunderground v.1.15,2013-09-30 20:21:00,
2013-09-30 16:26:00,75.6,63.9,29.96,SE,135,0.0,0.0,67,0.00,,,0.00,0,Wunderground v.1.15,2013-09-30 20:26:00,
2013-09-30 16:31:00,75.4,64.1,29.96,SE,135,0.0,0.0,68,0.00,,,0.00,0,Wunderground v.1.15,2013-09-30 20:31:00,
2013-09-30 16:36:00,75.1,63.8,29.96,SE,136,0.0,0.0,68,0.00,,,0.00,0,Wunderground v.1.15,2013-09-30 20:36:00,
2013-09-30 16:41:00,74.8,63.5,29.96,SE,137,3.0,3.0,68,0.00,,,0.00,0,Wunderground v.1.15,2013-09-30 20:41:00,
2013-09-30 16:46:00,74.6,63.8,29.96,SE,139,0.0,3.0,69,0.00,,,0.00,0,Wunderground v.1.15,2013-09-30 20:46:00,
2013-09-30 16:51:00,74.7,64.3,29.96,SE,142,0.0,1.0,70,0.00,,,0.00,0,Wunderground v.1.15,2013-09-30 20:51:00,
2013-09-30 16:57:00,75.1,63.8,29.95,SE,142,1.0,3.0,68,0.00,,,0.00,0,Wunderground v.1.15,2013-09-30 20:57:00,
2013-09-30 17:02:00,75.3,64.0,29.96,SE,142,1.0,2.0,68,0.00,,,0.00,0,Wunderground v.1.15,2013-09-30 21:02:00,
2013-09-30 17:07:00,75.6,64.3,29.96,SE,142,1.0,2.0,68,0.00,,,0.00,0,Wunderground v.1.15,2013-09-30 21:07:00,
2013-09-30 17:12:00,75.9,64.6,29.95,SE,142,1.0,3.0,68,0.00,,,0.00,0,Wunderground v.1.15,2013-09-30 21:12:00,
2013-09-30 17:17:00,75.8,64.5,29.96,SE,142,1.0,3.0,68,0.00,,,0.00,0,Wunderground v.1.15,2013-09-30 21:17:00,
2013-09-30 17:22:00,75.6,63.9,29.96,SE,142,1.0,2.0,67,0.00,,,0.00,0,Wunderground v.1.15,2013-09-30 21:22:00,
2013-09-30 17:27:00,75.3,64.0,29.96,SE,142,0.0,3.0,68,0.00,,,0.00,0,Wunderground v.1.15,2013-09-30 21:27:00,
2013-09-30 17:32:00,75.1,63.8,29.96,SE,142,0.0,0.0,68,0.00,,,0.00,0,Wunderground v.1.15,2013-09-30 21:32:00,
2013-09-30 17:37:00,74.9,63.6,29.96,SE,142,1.0,2.0,68,0.00,,,0.00,0,Wunderground v.1.15,2013-09-30 21:37:00,
2013-09-30 17:42:00,74.7,63.9,29.96,SE,142,0.0,1.0,69,0.00,,,0.00,0,Wunderground v.1.15,2013-09-30 21:42:00,
2013-09-30 17:47:00,74.8,63.9,29.96,SE,142,0.0,2.0,69,0.00,,,0.00,0,Wunderground v.1.15,2013-09-30 21:47:00,
2013-09-30 17:52:00,74.7,63.9,29.96,SE,142,0.0,2.0,69,0.00,,,0.00,0,Wunderground v.1.15,2013-09-30 21:52:00,
2013-09-30 17:57:00,74.5,63.7,29.96,SE,142,0.0,3.0,69,0.00,,,0.00,0,Wunderground v.1.15,2013-09-30 21:57:00,
2013-09-30 18:02:00,74.3,63.9,29.96,SE,142,0.0,0.0,70,0.00,,,0.00,0,Wunderground v.1.15,2013-09-30 22:02:00,
2013-09-30 18:07:00,74.1,64.1,29.97,SE,142,0.0,1.0,71,0.00,,,0.00,0,Wunderground v.1.15,2013-09-30 22:07:00,
2013-09-30 18:12:00,73.9,63.9,29.96,SE,142,0.0,0.0,71,0.00,,,0.00,0,Wunderground v.1.15,2013-09-30 22:12:00,
2013-09-30 18:17:00,73.6,64.0,29.97,SE,142,0.0,0.0,72,0.00,,,0.00,0,Wunderground v.1.15,2013-09-30 22:17:00,
2013-09-30 18:22:00,73.4,64.2,29.97,SE,142,0.0,0.0,73,0.00,,,0.00,0,Wunderground v.1.15,2013-09-30 22:22:00,
2013-09-30 18:27:00,73.3,64.5,29.96,SE,142,1.0,2.0,74,0.00,,,0.00,0,Wunderground v.1.15,2013-09-30 22:27:00,
2013-09-30 18:32:00,73.2,64.8,29.96,SE,142,0.0,0.0,75,0.00,,,0.00,0,Wunderground v.1.15,2013-09-30 22:32:00,
2013-09-30 18:37:00,73.0,65.0,29.96,SE,142,0.0,2.0,76,0.00,,,0.00,0,Wunderground v.1.15,2013-09-30 22:37:00,
2013-09-30 18:42:00,72.8,64.8,29.96,SE,137,1.0,1.0,76,0.00,,,0.00,0,Wunderground v.1.15,2013-09-30 22:42:00,
2013-09-30 18:47:00,72.6,64.6,29.97,SE,137,0.0,1.0,76,0.00,,,0.00,0,Wunderground v.1.15,2013-09-30 22:47:00,
2013-09-30 18:52:00,72.5,64.9,29.96,SE,136,0.0,0.0,77,0.00,,,0.00,0,Wunderground v.1.15,2013-09-30 22:52:00,
2013-09-30 18:57:00,72.2,64.6,29.97,NE,52,0.0,0.0,77,0.00,,,0.00,0,Wunderground v.1.15,2013-09-30 22:57:00,
2013-09-30 19:02:00,71.9,64.7,29.97,NE,50,0.0,0.0,78,0.00,,,0.00,0,Wunderground v.1.15,2013-09-30 23:02:00,
2013-09-30 19:07:00,71.5,64.6,29.97,SE,143,0.0,1.0,79,0.00,,,0.00,0,Wunderground v.1.15,2013-09-30 23:07:00,
2013-09-30 19:12:00,71.0,64.5,29.97,SE,142,0.0,0.0,80,0.00,,,0.00,0,Wunderground v.1.15,2013-09-30 23:12:00,
2013-09-30 19:18:00,70.5,64.7,29.97,SE,142,0.0,0.0,82,0.00,,,0.00,0,Wunderground v.1.15,2013-09-30 23:18:00,
2013-09-30 19:23:00,70.1,64.3,29.97,SE,143,0.0,0.0,82,0.00,,,0.00,0,Wunderground v.1.15,2013-09-30 23:23:00,
2013-09-30 19:28:00,69.7,64.3,29.97,SE,142,0.0,0.0,83,0.00,,,0.00,0,Wunderground v.1.15,2013-09-30 23:28:00,
2013-09-30 19:34:00,69.3,64.3,29.97,SE,142,0.0,0.0,84,0.00,,,0.00,0,Wunderground v.1.15,2013-09-30 23:34:00,
2013-09-30 19:39:00,68.9,63.9,29.97,SE,141,0.0,0.0,84,0.00,,,0.00,0,Wunderground v.1.15,2013-09-30 23:39:00,
2013-09-30 19:43:00,68.6,63.9,29.98,SE,139,0.0,1.0,85,0.00,,,0.00,0,Wunderground v.1.15,2013-09-30 23:43:00,
2013-09-30 19:49:00,68.3,63.6,29.98,SE,139,0.0,1.0,85,0.00,,,0.00,0,Wunderground v.1.15,2013-09-30 23:49:00,
2013-09-30 19:54:00,68.0,63.7,29.98,SE,139,0.0,2.0,86,0.00,,,0.00,0,Wunderground v.1.15,2013-09-30 23:54:00,
2013-09-30 19:59:00,67.8,63.5,29.98,SE,139,1.0,1.0,86,0.00,,,0.00,0,Wunderground v.1.15,2013-09-30 23:59:00,
2013-09-30 20:04:00,67.6,63.6,29.98,SE,138,0.0,1.0,87,0.00,,,0.00,0,Wunderground v.1.15,2013-10-01 00:04:00,
2013-09-30 20:09:00,67.3,63.3,29.98,SE,139,0.0,0.0,87,0.00,,,0.00,0,Wunderground v.1.15,2013-10-01 00:09:00,
2013-09-30 20:14:00,67.0,63.3,29.98,SE,139,0.0,0.0,88,0.00,,,0.00,0,Wunderground v.1.15,2013-10-01 00:14:00,
2013-09-30 20:19:00,66.7,63.0,29.99,SE,140,0.0,0.0,88,0.00,,,0.00,0,Wunderground v.1.15,2013-10-01 00:19:00,
2013-09-30 20:24:00,66.4,62.7,29.99,SE,140,0.0,0.0,88,0.00,,,0.00,0,Wunderground v.1.15,2013-10-01 00:24:00,
2013-09-30 20:29:00,66.2,62.9,29.99,SE,141,0.0,0.0,89,0.00,,,0.00,0,Wunderground v.1.15,2013-10-01 00:29:00,
2013-09-30 20:34:00,66.1,62.8,29.99,SE,142,0.0,0.0,89,0.00,,,0.00,0,Wunderground v.1.15,2013-10-01 00:34:00,
2013-09-30 20:39:00,65.9,62.6,29.99,SE,141,0.0,0.0,89,0.00,,,0.00,0,Wunderground v.1.15,2013-10-01 00:39:00,
2013-09-30 20:44:00,65.8,62.5,29.99,SE,142,0.0,0.0,89,0.00,,,0.00,0,Wunderground v.1.15,2013-10-01 00:44:00,
2013-09-30 20:49:00,65.7,62.7,29.99,SE,142,0.0,0.0,90,0.00,,,0.00,0,Wunderground v.1.15,2013-10-01 00:49:00,
2013-09-30 20:54:00,65.7,62.7,30.00,SE,142,0.0,0.0,90,0.00,,,0.00,0,Wunderground v.1.15,2013-10-01 00:54:00,
2013-09-30 20:59:00,65.8,62.8,30.00,SE,142,0.0,0.0,90,0.00,,,0.00,0,Wunderground v.1.15,2013-10-01 00:59:00,
2013-09-30 21:04:00,65.9,62.9,30.00,SE,142,0.0,0.0,90,0.00,,,0.00,0,Wunderground v.1.15,2013-10-01 01:04:00,
2013-09-30 21:09:00,65.9,62.9,30.00,SE,142,0.0,0.0,90,0.00,,,0.00,0,Wunderground v.1.15,2013-10-01 01:09:00,
2013-09-30 21:14:00,66.0,63.0,30.00,SE,142,0.0,0.0,90,0.00,,,0.00,0,Wunderground v.1.15,2013-10-01 01:14:00,
2013-09-30 21:20:00,66.0,63.0,30.00,SE,142,0.0,0.0,90,0.00,,,0.00,0,Wunderground v.1.15,2013-10-01 01:20:00,
2013-09-30 21:25:00,66.0,63.0,30.00,SE,142,0.0,0.0,90,0.00,,,0.00,0,Wunderground v.1.15,2013-10-01 01:25:00,
2013-09-30 21:30:00,66.1,63.1,30.00,SE,142,0.0,0.0,90,0.00,,,0.00,0,Wunderground v.1.15,2013-10-01 01:30:00,
2013-09-30 21:35:00,66.0,63.0,30.00,SE,142,0.0,0.0,90,0.00,,,0.00,0,Wunderground v.1.15,2013-10-01 01:35:00,
2013-09-30 21:41:00,65.9,62.9,30.00,SE,142,0.0,0.0,90,0.00,,,0.00,0,Wunderground v.1.15,2013-10-01 01:41:00,
2013-09-30 21:46:00,65.9,62.9,30.00,SE,142,0.0,0.0,90,0.00,,,0.00,0,Wunderground v.1.15,2013-10-01 01:46:00,
2013-09-30 21:51:00,65.8,62.8,30.01,SE,142,0.0,0.0,90,0.00,,,0.00,0,Wunderground v.1.15,2013-10-01 01:51:00,
2013-09-30 21:56:00,65.7,62.7,30.01,SE,142,0.0,0.0,90,0.00,,,0.00,0,Wunderground v.1.15,2013-10-01 01:56:00,
2013-09-30 22:01:00,65.5,62.5,30.01,SE,142,0.0,0.0,90,0.00,,,0.00,0,Wunderground v.1.15,2013-10-01 02:01:00,
2013-09-30 22:06:00,65.5,62.5,30.01,SE,142,0.0,0.0,90,0.00,,,0.00,0,Wunderground v.1.15,2013-10-01 02:06:00,
2013-09-30 22:11:00,65.3,62.6,30.01,SE,142,0.0,0.0,91,0.00,,,0.00,0,Wunderground v.1.15,2013-10-01 02:11:00,
2013-09-30 22:16:00,65.2,62.5,30.01,SE,142,0.0,0.0,91,0.00,,,0.00,0,Wunderground v.1.15,2013-10-01 02:16:00,
2013-09-30 22:21:00,65.1,62.4,30.01,SE,142,0.0,0.0,91,0.00,,,0.00,0,Wunderground v.1.15,2013-10-01 02:21:00,
2013-09-30 22:26:00,65.0,62.6,30.01,SE,142,0.0,0.0,92,0.00,,,0.00,0,Wunderground v.1.15,2013-10-01 02:26:00,
2013-09-30 22:31:00,64.9,62.5,30.01,SE,141,0.0,0.0,92,0.00,,,0.00,0,Wunderground v.1.15,2013-10-01 02:31:00,
2013-09-30 22:36:00,64.7,62.3,30.01,SE,142,0.0,0.0,92,0.00,,,0.00,0,Wunderground v.1.15,2013-10-01 02:36:00,
2013-09-30 22:41:00,64.6,62.2,30.01,SE,142,0.0,0.0,92,0.00,,,0.00,0,Wunderground v.1.15,2013-10-01 02:41:00,
2013-09-30 22:46:00,64.4,62.3,30.01,SE,142,0.0,0.0,93,0.00,,,0.00,0,Wunderground v.1.15,2013-10-01 02:46:00,
2013-09-30 22:51:00,64.2,62.4,30.01,SE,142,0.0,0.0,94,0.00,,,0.00,0,Wunderground v.1.15,2013-10-01 02:51:00,
2013-09-30 22:57:00,64.1,62.3,30.01,SE,142,0.0,0.0,94,0.00,,,0.00,0,Wunderground v.1.15,2013-10-01 02:57:00,
2013-09-30 23:02:00,64.0,62.2,30.01,SE,142,0.0,0.0,94,0.00,,,0.00,0,Wunderground v.1.15,2013-10-01 03:02:00,
2013-09-30 23:07:00,63.9,62.1,30.01,SE,142,0.0,0.0,94,0.00,,,0.00,0,Wunderground v.1.15,2013-10-01 03:07:00,
2013-09-30 23:12:00,63.8,62.3,30.01,SE,142,0.0,0.0,95,0.00,,,0.00,0,Wunderground v.1.15,2013-10-01 03:12:00,
2013-09-30 23:17:00,63.9,62.4,30.01,SE,142,0.0,0.0,95,0.00,,,0.00,0,Wunderground v.1.15,2013-10-01 03:17:00,
2013-09-30 23:22:00,63.9,62.4,30.01,SE,142,0.0,0.0,95,0.00,,,0.00,0,Wunderground v.1.15,2013-10-01 03:22:00,
2013-09-30 23:27:00,63.8,62.3,30.01,SE,142,0.0,0.0,95,0.00,,,0.00,0,Wunderground v.1.15,2013-10-01 03:27:00,
2013-09-30 23:32:00,63.7,62.2,30.01,SE,142,0.0,1.0,95,0.00,,,0.00,0,Wunderground v.1.15,2013-10-01 03:32:00,
2013-09-30 23:37:00,63.5,62.0,30.01,SE,142,0.0,1.0,95,0.00,,,0.00,0,Wunderground v.1.15,2013-10-01 03:37:00,
2013-09-30 23:42:00,63.4,61.9,30.01,SE,142,0.0,0.0,95,0.00,,,0.00,0,Wunderground v.1.15,2013-10-01 03:42:00,
2013-09-30 23:47:00,63.3,61.8,30.01,SE,142,0.0,0.0,95,0.00,,,0.00,0,Wunderground v.1.15,2013-10-01 03:47:00,
2013-09-30 23:52:00,63.1,61.6,30.00,SE,142,0.0,0.0,95,0.00,,,0.00,0,Wunderground v.1.15,2013-10-01 03:52:00,
2013-09-30 23:57:00,63.0,61.5,30.01,SE,142,0.0,0.0,95,0.00,,,0.00,0,Wunderground v.1.15,2013-10-01 03:57:00,